Showing default

CAPELLA-17 (ACADIA), 64583

Orbit data source: Space-Track

CAPELLA-17 (ACADIA), 64583 is a payload satellite owned by Capella Space (US) in SSO that was launched on Mon, 23 Jun 2025 UTC via an FALCON 9 launch vehicle from the Air Force Western Test Range (AFWTR). Payload-class satellites include a variety of spacecraft equipped with specific instruments for various scientific and technological missions. These include communications satellites like Starlink; space stations such as the ISS; scientific satellites like the Hubble; Earth observation satellites from companies like Planet Labs, Umbra, and HawkEye 360; GPS; miniature CubeSats for education and research; and military/defense satellites.

Loading next visibility...
Identifier
64583, 2025-135BH
Orbit
SSO
Country
Flag of USUS
Related business
Manufacturer
Capella Space
Mission
Operational Commercial Radar Imaging
Bus & Motor
ACADIA, Unknown motor
Mass
180 kg wet, ~150 kg dry
Launch date (UTC)
2025-06-23 (1 year ago)
Launch vehicle
FALCON 9
Launch site
Air Force Western Test Range (AFWTR)
Object type
Payload
Rocket body
Debris
Shape & HBR
Box + 2 Pan + 1 Dish + 1 Rod, 5.0 m
Radar Cross Section
0.463 m², Large (>1 m²)

Expand to show TLE details & history
Last TLE update: 14 hours ago

TLE from 14 hours ago
0 CAPELLA-17 (ACADIA)
1 64583U 25135BH  26178.26752192  .00008060  00000-0  81155-3 0  9997
2 64583  97.7697 291.7405 0004003 331.4926  28.6073 14.91427574 55354
Epoch: 2026-06-27T06:25Z
TLE epoch observation values (Epoch: 2026-06-27T06:25:13.893Z)
Latitude
-0.00005°
Longitude
-79.95151°
Altitude
594.074 km
Speed
7.564 km/s
True Right ascension
19h 26m 57s
True Declination
0° 00' 00"
Sunlit
Object was in full shadow at epoch
Visualization orbit readout
Latitude
Unknown
Longitude
Unknown
Altitude
Unknown
Speed
Unknown
Apparent Right ascension
Unknown
Apparent Declination
Unknown
Sunlit
N/A
Visualization observer readout
Local Sidereal Time
07:44:07
Azimuth
Unknown
Elevation
Unknown
Doppler factor
Unknown
Orbital elements
Apogee altitude
593.293 km
Perigee altitude
587.714 km
Semi-major axis
6,968.64 km
Eccentricity
0.0004
Inclination
97.7697°
RAAN
291.7405°
Arg. of periapsis
331.4926°
True anomaly
28.62927°
Mean anomaly
28.6073°
Eccentric anomaly
28.61829°
Mean motion
3.73096 °/min
Orbital period
96.49 mins
BSTAR
0.00081155
Loading maneuver chart data...
Computing Atmospheric mass density...
Loading historical data...
Loading historical data...
Loading historical data...
Loading historical data...
Loading historical data...
Loading historical data...
Loading historical data...

Documentation

Showing up to 5 results
|